Location: Czekanka
(50.4925°N, 19.2643°E)
Time: 03:14:12
(UTC+00:00)

Resurs 1-4 Rocket - Pass Details

Date: 15 June 2024
Orbit: 799 x 812 km, 98.7° (Epoch: 22 July)

Event Time Altitude Azimuth Distance (km) Brightness Sun altitude
Rises 00:50:22 0° 15° (NNE) 3,326 7.1 -11.0°
Reaches altitude 10° 00:52:43 10° 16° (NNE) 2,392 6.0 -10.9°
Maximum altitude 00:58:01 83° 105° (ESE) 817 2.2 -10.4°
Enters shadow 01:03:04 11° 194° (SSW) 2,293 3.9 -10.0°
